Location: Frankfurt+am+Main
(50.1100°N, 8.4815°E)
Time: 00:57:35
(UTC+02:00)

ISS - Visible Passes

Search period start: 22 October 2019 00:00
Search period end: 31 October 2019 23:00
Orbit: 411 x 421 km, 51.6° (Epoch: 21 October)

Date Brightness Start Highest point End Pass type
(mag) Time Alt. Az. Time Alt. Az. Time Alt. Az.
24 Oct -0.5 06:50:48 10° SSE 06:51:52 11° SE 06:52:56 10° ESE visible
26 Oct -1.5 06:48:15 10° SSW 06:51:00 23° SE 06:53:46 10° E visible
27 Oct -1.1 05:00:46 11° S 05:02:34 16° SE 05:04:43 10° E visible
28 Oct -0.5 04:14:37 10° SE 04:14:37 10° SE 04:14:46 10° SE visible
28 Oct -2.9 05:47:32 14° SW 05:50:15 46° SSE 05:53:30 10° ENE visible
29 Oct -2.4 05:01:15 30° SSE 05:01:42 32° SSE 05:04:45 10° E visible
29 Oct -3.8 06:34:53 10° WSW 06:38:15 82° NNW 06:41:38 10° ENE visible
30 Oct -0.8 04:14:49 16° ESE 04:14:49 16° ESE 04:15:52 10° E visible
30 Oct -3.8 05:47:44 24° WSW 05:49:35 81° SSE 05:52:58 10° ENE visible
31 Oct -3.3 05:01:13 58° SE 05:01:13 58° SE 05:04:17 10° ENE visible
31 Oct -3.6 06:34:22 10° W 06:37:43 66° N 06:41:04 10° E visible
